Weather in Chizha

Russia / Nenets Autonomous Okrug     67°05′13″N   44°22′43″E
temp.,
°C
wind,
m/s
gust,
m/s
humid.,
%
clouds,
%
prec.,
mm/h
press.,
hPa
HPBL,
m
1 march, mon
mon100:00−5sw101594100 0.3 1002418
03:00−3sw101694100 0.4 999539
06:00−3sw101695100 1.3 994467
09:000w91499100 5.4 990416
12:00+1w7129497 0.4 989457
15:000w6119260 0.4 990238
18:00−1w6119397 0.2 988327
21:00−3w6119795 0.2 987210
2 march, tue
tue200:00−4w6119494 0.1 986211
03:00−7w589293 0.1 98799
06:00−5w699692 0.2 987222
09:00−3nnw499196 0.4 989256
12:00−5wnw5108592 0.0 990188
15:00−5w7128446 0.0 991198
18:00−5w9159385 0.0 990431
21:00−4wnw10179193 0.8 989751
3 march, wed
wed300:00−5nw111887100 1.2 988710
03:00−10nw10178899 1.2 990510
06:00−12nnw111791100 0.5 991485
09:00−15n8139099 0.6 994404
12:00−15n699295 0.1 996415
15:00−16n479398 0.1 998311
18:00−17n3496100 0.0 99866
21:00−19nne349795 0.0 99742
4 march, thu
thu400:00−19nne349691 0.0 99755
03:00−21nne449692 0.0 99749
06:00−22n449885 0.0 99629
09:00−19n479692 0.1 996200
12:00−15nne589396 0.1 997484
15:00−16ne599397 0.2 998389
18:00−17ne61094100 0.1 998374
21:00−18ne61095100 0.2 1000415
5 march, fri
fri500:00−20nne6109696 0.1 1001329
03:00−22nne589796 0.1 1002229
06:00−25n459896 0.0 100455
09:00−26nne349766 0.0 100532
12:00−24nnw33940 0.0 100659
15:00−25n129212 0.0 100620
18:00−27n229479 0.0 100719
21:00−26nne239481 0.0 100819